Date String (YYYY-MM-DD hh:mm:ss) UTC,Instrument flags,Ambient pressure (hPa),Sample flow (lpm),Bypass flow (lpm),Sample temperature (°C),Ambient temperature (°C),ASC tube jacket temperature (°C),LED temperature (°C),Box temperature (°C),Sample RH (%),Span deviation,Mass concentration (μg/m³),Mass concentration (μg/m³),Mass concentration (μg/m³)
DateTimeUTC,F1_M11,P_M11,Q1_M11,Q2_M11,T1_M11,T2_M11,T3_M11,T4_M11,T5_M11,U1_M11,ZSPAN_M11,X2_M11,X0_M11,X1_M11
2023-02-08 23:00:00,,0821.8,5.00,0.00,23.1,21.7,00.0,32.0,24.8,08.6,0000.0,0001.27,0004.69,0000.76
2023-02-08 23:01:00,,0821.8,4.99,0.00,23.1,21.7,00.0,32.0,24.8,08.5,0000.0,0001.28,0005.20,0000.76
2023-02-08 23:02:00,,0821.8,5.02,0.00,23.1,21.6,00.0,32.0,24.8,08.6,0000.0,0001.33,0005.17,0000.77
2023-02-08 23:03:00,,0821.8,5.00,0.00,23.1,21.6,00.0,32.0,24.8,08.3,0000.0,0001.36,0005.98,0000.77
2023-02-08 23:04:00,,0821.8,4.98,0.00,23.1,21.6,00.0,32.0,24.8,08.5,0000.0,0001.38,0006.39,0000.77
2023-02-08 23:05:00,,0821.8,5.01,0.00,23.1,21.6,00.0,32.0,24.8,08.0,0000.0,0001.39,0006.39,0000.77
2023-02-08 23:06:00,,0822.0,5.01,0.00,23.1,21.6,00.0,32.0,24.8,08.2,0000.0,0001.38,0006.38,0000.77
2023-02-08 23:07:00,,0821.8,4.99,0.00,23.1,21.7,00.0,32.0,24.9,08.5,0000.0,0001.39,0006.43,0000.78
2023-02-08 23:08:00,,0821.8,4.98,0.00,23.1,21.7,00.0,32.0,24.9,08.2,0000.0,0001.37,0005.87,0000.78
2023-02-08 23:09:00,,0821.8,5.02,0.00,23.1,21.7,00.0,32.0,24.9,08.4,0000.0,0001.41,0005.20,0000.77
2023-02-08 23:10:00,,0821.8,5.02,0.00,23.1,21.7,00.0,32.0,24.8,08.2,0000.0,0001.36,0004.81,0000.77
2023-02-08 23:11:00,,0822.0,5.00,0.00,23.1,21.7,00.0,32.0,24.9,08.1,0000.0,0001.35,0004.70,0000.76
2023-02-08 23:12:00,,0821.9,4.98,0.00,23.1,21.7,00.0,32.0,24.8,08.0,0000.0,0001.36,0003.97,0000.76
2023-02-08 23:13:00,,0822.0,5.02,0.00,23.1,21.7,00.0,32.0,24.8,08.2,0000.0,0001.32,0003.86,0000.75
2023-02-08 23:14:00,,0822.0,4.99,0.00,23.1,21.7,00.0,32.0,24.8,08.4,0000.0,0001.33,0003.23,0000.74
2023-02-08 23:15:00,,0821.9,4.95,0.00,23.1,21.7,00.0,32.0,24.8,08.7,0000.0,0001.30,0002.63,0000.73
2023-02-08 23:16:00,,0821.9,4.99,0.00,23.1,21.7,00.0,32.0,24.9,08.3,0000.0,0001.27,0002.55,0000.73
2023-02-08 23:17:00,,0821.9,4.99,0.00,23.1,21.8,00.0,32.0,24.9,08.4,0000.0,0001.23,0002.67,0000.71
2023-02-08 23:18:00,,0821.9,4.99,0.00,23.1,21.8,00.0,32.0,24.9,08.1,0000.0,0001.23,0002.82,0000.69
2023-02-08 23:19:00,,0822.0,5.00,0.00,23.2,21.8,00.0,32.0,24.9,08.5,0000.0,0001.24,0002.67,0000.68
2023-02-08 23:20:00,,0821.9,5.04,0.00,23.2,21.8,00.0,32.0,24.9,08.5,0000.0,0001.19,0002.47,0000.68
2023-02-08 23:21:00,,0821.9,5.02,0.00,23.2,21.8,00.0,32.0,24.9,08.4,0000.0,0001.15,0002.34,0000.68
2023-02-08 23:22:00,,0822.0,4.97,0.00,23.2,21.8,00.0,32.0,24.9,08.3,0000.0,0001.13,0002.28,0000.68
2023-02-08 23:23:00,,0822.1,5.01,0.00,23.2,21.8,00.0,32.0,24.9,08.2,0000.0,0001.10,0002.27,0000.67
2023-02-08 23:24:00,,0822.0,4.98,0.00,23.2,21.8,00.0,32.0,24.9,08.2,0000.0,0001.13,0002.39,0000.67
2023-02-08 23:25:00,,0822.0,4.97,0.00,23.2,21.8,00.0,32.0,24.9,08.3,0000.0,0001.10,0002.42,0000.68
2023-02-08 23:26:00,,0822.1,5.00,0.00,23.2,21.8,00.0,32.0,24.9,08.3,0000.0,0001.12,0002.69,0000.67
2023-02-08 23:27:00,,0822.1,5.02,0.00,23.2,21.8,00.0,32.0,24.9,08.4,0000.0,0001.15,0002.79,0000.67
2023-02-08 23:28:00,,0822.1,5.01,0.00,23.2,21.8,00.0,32.0,24.9,08.5,0000.0,0001.13,0002.60,0000.66
2023-02-08 23:29:00,,0822.1,5.04,0.00,23.2,21.8,00.0,32.0,24.8,08.2,0000.0,0001.14,0002.52,0000.67
2023-02-08 23:30:00,,0822.1,4.98,0.00,23.2,21.8,00.0,32.0,24.9,08.1,0000.0,0001.14,0002.61,0000.67
2023-02-08 23:31:00,,0822.1,5.04,0.00,23.2,21.8,00.0,32.0,24.9,08.3,0000.0,0001.15,0002.72,0000.68
2023-02-08 23:32:00,,0822.1,5.00,0.00,23.2,21.8,00.0,32.0,24.9,08.6,0000.0,0001.18,0003.01,0000.67
2023-02-08 23:33:00,,0822.1,4.98,0.00,23.2,21.8,00.0,32.0,24.9,08.7,0000.0,0001.18,0003.20,0000.67
2023-02-08 23:34:00,,0822.1,4.99,0.00,23.2,21.8,00.0,32.0,24.9,08.5,0000.0,0001.18,0003.46,0000.67
2023-02-08 23:35:00,,0822.1,5.01,0.00,23.2,21.8,00.0,32.0,24.9,08.4,0000.0,0001.12,0003.31,0000.66
2023-02-08 23:36:00,,0822.1,5.00,0.00,23.2,21.8,00.0,32.0,24.8,08.5,0000.0,0001.12,0003.25,0000.66
2023-02-08 23:37:00,,0822.1,4.99,0.00,23.2,21.8,00.0,32.0,24.9,08.3,0000.0,0001.11,0002.95,0000.66
2023-02-08 23:38:00,,0822.1,5.02,0.00,23.2,21.8,00.0,32.0,24.9,08.2,0000.0,0001.09,0003.15,0000.66
2023-02-08 23:39:00,,0822.0,5.00,0.00,23.2,21.8,00.0,32.0,24.9,08.0,0000.0,0001.13,0003.33,0000.67
2023-02-08 23:40:00,,0822.0,4.99,0.00,23.2,21.8,00.0,32.0,24.9,07.9,0000.0,0001.15,0003.32,0000.67
2023-02-08 23:41:00,,0822.0,4.99,0.00,23.2,21.7,00.0,32.0,24.9,07.9,0000.0,0001.19,0003.33,0000.67
2023-02-08 23:42:00,,0822.0,4.98,0.00,23.2,21.7,00.0,32.0,24.9,07.9,0000.0,0001.25,0003.74,0000.66
2023-02-08 23:43:00,,0822.0,5.01,0.00,23.2,21.7,00.0,32.0,24.9,08.0,0000.0,0001.27,0003.73,0000.66
2023-02-08 23:44:00,,0822.1,5.00,0.00,23.1,21.7,00.0,32.0,24.8,07.8,0000.0,0001.26,0003.48,0000.66
2023-02-08 23:45:00,,0822.1,5.01,0.00,23.1,21.7,00.0,32.0,24.8,07.8,0000.0,0001.26,0003.23,0000.65
2023-02-08 23:46:00,,0822.1,5.03,0.00,23.1,21.7,00.0,32.0,24.8,07.7,0000.0,0001.27,0003.24,0000.66
2023-02-08 23:47:00,,0822.1,4.97,0.00,23.1,21.7,00.0,32.0,24.9,07.8,0000.0,0001.29,0003.31,0000.66
2023-02-08 23:48:00,,0822.1,4.99,0.00,23.1,21.7,00.0,32.0,24.9,07.9,0000.0,0001.29,0003.63,0000.66
2023-02-08 23:49:00,,0822.1,5.02,0.00,23.1,21.7,00.0,32.0,24.8,07.8,0000.0,0001.25,0003.26,0000.65
2023-02-08 23:50:00,,0822.2,5.00,0.00,23.1,21.7,00.0,32.0,24.8,08.0,0000.0,0001.24,0003.12,0000.65
2023-02-08 23:51:00,,0822.2,5.03,0.00,23.1,21.7,00.0,32.0,24.9,08.1,0000.0,0001.19,0003.04,0000.65
2023-02-08 23:52:00,,0822.2,4.99,0.00,23.1,21.7,00.0,32.0,24.9,08.1,0000.0,0001.15,0002.93,0000.65
2023-02-08 23:53:00,,0822.2,5.03,0.00,23.1,21.7,00.0,32.0,24.9,08.1,0000.0,0001.06,0002.40,0000.65
2023-02-08 23:54:00,,0822.1,4.97,0.00,23.1,21.7,00.0,32.0,24.9,08.0,0000.0,0001.01,0002.13,0000.64
2023-02-08 23:55:00,,0822.1,5.00,0.00,23.1,21.7,00.0,32.0,24.9,08.0,0000.0,0001.00,0002.60,0000.64
2023-02-08 23:56:00,,0822.2,5.00,0.00,23.1,21.8,00.0,32.0,24.9,08.1,0000.0,0001.05,0003.11,0000.65
2023-02-08 23:57:00,,0822.2,4.99,0.00,23.2,21.8,00.0,32.0,24.9,08.4,0000.0,0001.10,0003.83,0000.66
2023-02-08 23:58:00,,0822.2,5.03,0.00,23.2,21.8,00.0,32.0,24.9,08.2,0000.0,0001.13,0004.63,0000.67
2023-02-08 23:59:00,,0822.1,4.96,0.00,23.2,21.8,00.0,32.0,24.9,08.1,0000.0,0001.27,0006.19,0000.69
